Vorticity
8 11 12 11 11 11 12 13 13 13 12 10 9 8 12 13 13 12 9 9 7 10
11 10 10 10 11 10 9 9 11 11 11 11 11 13 16 16 13 10 7 5 6 9
15 15 15 14 14 15 16 15 14 13 13 11 11 9 9 10 11 11 12 12 11 11
10 10 8 8 8 8 7 6 6 6 6 5 5 5 6 6 5 4 5 5 6 6
7 7 7 7 7 6 7 8 9 8 10 10 10 10 10 9 9 10 10 11 12 13
6 7 8 8 10 12 13 13 13 12 12 12 13 13 11 10 12 14 13 13 14 15
12 12 12 13 13 12 12 12 12 12 12 10 11 14 15 13 13 15 19 15 11 12
13 13 13 12 11 11 12 12 12 11 12 15 15 15 17 20 18 12 7 9 11 4
13 13 10 11 13 13 13 14 16 18 18 19 15 15 13 12 7 12 6 14 13 17
14 12 12 15 16 19 18 17 16 17 11 11 11 11 11 12 14 7 11 8 16 14
15 13 15 18 18 15 12 13 10 7 15 14 11 9 9 13 11 11 15 14 10 7
13 14 16 15 12 11 11 11 8 9 18 4 8 16 15 13 14 12 8 8 6 5
13 11 11 15 12 10 11 8 16 21 9 18 12 9 10 9 8 7 6 6 5 5
13 8 13 13 12 16 7 18 15 15 8 8 9 8 7 7 6 6 6 5 6 6
Height
3106 3108 3110 3111 3112 3113 3115 3117 3117 3116 3116 3115 3114 3115 3115 3114 3114 3113 3112 3112 3112 3111
3098 3099 3100 3102 3103 3103 3103 3104 3106 3106 3105 3105 3105 3106 3106 3106 3105 3104 3104 3103 3103 3102
3090 3092 3093 3093 3093 3094 3095 3096 3097 3096 3096 3096 3097 3097 3097 3097 3097 3096 3096 3095 3094 3093
3083 3084 3085 3086 3086 3087 3088 3088 3088 3089 3089 3089 3090 3090 3089 3089 3089 3089 3088 3087 3086 3084
3077 3077 3078 3078 3079 3080 3081 3081 3081 3081 3081 3082 3081 3081 3081 3081 3081 3081 3080 3079 3077 3076
3070 3070 3071 3071 3071 3071 3072 3072 3072 3073 3073 3073 3073 3072 3073 3073 3073 3073 3072 3071 3069 3067
3062 3062 3062 3063 3063 3063 3063 3064 3064 3065 3065 3065 3065 3065 3065 3065 3066 3065 3065 3064 3063 3061
3054 3054 3054 3055 3055 3055 3056 3057 3057 3058 3058 3058 3059 3059 3059 3059 3059 3059 3058 3058 3057 3055
3046 3046 3047 3048 3048 3049 3050 3050 3051 3052 3052 3053 3053 3054 3054 3054 3055 3054 3054 3053 3052 3050
3039 3040 3041 3042 3043 3043 3044 3045 3046 3047 3048 3048 3049 3049 3049 3050 3050 3050 3050 3049 3048 3048
3034 3035 3035 3036 3038 3039 3039 3041 3042 3043 3044 3045 3046 3046 3046 3046 3046 3046 3046 3046 3046 3045
3029 3030 3031 3032 3034 3035 3036 3037 3038 3040 3042 3042 3043 3043 3043 3043 3044 3044 3044 3044 3043 3042
3025 3026 3027 3029 3030 3032 3032 3034 3036 3038 3039 3039 3040 3041 3041 3042 3042 3042 3042 3042 3040 3038
3022 3023 3024 3025 3027 3028 3030 3032 3034 3036 3037 3038 3039 3040 3040 3040 3040 3040 3039 3038 3036 3035